Harrison, AR

10:46 PM CDT on June 24, 2017 (GMT -0500)
Boone County

Weather History for KHRO - June, 2014

Change the Weather History Date:

Tuesday, June 24, 2014

  Actual Average Record
Temperature  
Mean Temperature 76 °F 76 °F  
Max Temperature 85 °F 87 °F 103 °F (1933)
Min Temperature 66 °F 65 °F 50 °F (1974)
Degree Days  
Heating Degree Days 0 0  
Month to date heating degree days 0 3  
Since 1 June heating degree days 0 3  
Since 1 July heating degree days 4465 4001  
Cooling Degree Days 11 11  
Month to date cooling degree days 210 198  
Year to date cooling degree days 397 337  
Since 1 June cooling degree days 210 198  
Growing Degree Days 26 (Base 50)    
Moisture  
Dew Point 65 °F    
Average Humidity 69    
Maximum Humidity 93    
Minimum Humidity 44    
Precipitation  
Precipitation T in 0.15 in 2.38 in (1915)
Month to date precipitation 4.09 3.49  
Year to date precipitation 19.40 21.49  
Snow  
Snow 0.00 in 0.00 in - ()
Month to date snowfall 0.0 0.0  
Since 1 June snowfall 0.0 0.0  
Since 1 July snowfall 25.8 11.5  
Snow Depth 0.00 in    
Sea Level Pressure  
Sea Level Pressure 29.98 in    
Wind  
Wind Speed 5 mph (NW)    
Max Wind Speed 13 mph    
Max Gust Speed 17 mph    
Visibility 8 miles    
Events Rain    
T = Trace of Precipitation, MM = Missing Value Source: NWS Daily Summary

Daily Weather History Graph

Daily Weather History Graph

Search for Another Location

Airport or City:

Trip Planner

Search our weather history database for the weather conditions in past years. The results will help you decide how hot, cold, wet, or windy it might be!

Date:

Astronomy

Jun. 24, 2014 Rise Set
Actual Time 5:56 AM CDT 8:33 PM CDT
Civil Twilight 5:25 AM CDT 9:04 PM CDT
Nautical Twilight 4:47 AM CDT 9:42 PM CDT
Astronomical Twilight 4:05 AM CDT 10:24 PM CDT
Moon 3:59 AM CDT (6/24) 6:16 PM CDT (6/24)
Length of Visible Light 15h 38m
Length of Day
14h 37m
Waning Crescent, 7% of the Moon is Illuminated
Jun 24
Waning Crescent
Jun 27
New
Jul 5
First Quarter
Jul 12
Full
Jul 18
Last Quarter

Hourly Weather History & Observations

Time (CDT) Temp. Heat Index Dew Point Humidity Pressure Visibility Wind Dir Wind Speed Gust Speed Precip Events Conditions
12:14 AM 68.0 °F - 66.2 °F 94% 29.95 in 6.0 mi West 5.8 mph - 0.01 in Rain Light Rain
12:29 AM 68.0 °F - 66.2 °F 94% 29.94 in 6.0 mi WNW 6.9 mph - 0.01 in   Overcast
12:53 AM 69.1 °F - 68.0 °F 96% 29.91 in 6.0 mi NW 4.6 mph - 0.01 in   Overcast
1:53 AM 69.1 °F - 66.9 °F 93% 29.91 in 7.0 mi WNW 5.8 mph - 0.00 in   Overcast
2:53 AM 68.0 °F - 66.9 °F 96% 29.91 in 6.0 mi WNW 6.9 mph - N/A   Overcast
3:53 AM 68.0 °F - 66.9 °F 96% 29.92 in 5.0 mi NW 4.6 mph - N/A   Overcast
4:03 AM 68.0 °F - 66.2 °F 94% 29.97 in 5.0 mi WNW 5.8 mph - N/A   Overcast
4:53 AM 68.0 °F - 66.9 °F 96% 29.93 in 5.0 mi WNW 6.9 mph - N/A   Overcast
5:30 AM 68.0 °F - 66.2 °F 94% 29.98 in 5.0 mi WNW 8.1 mph - N/A   Overcast
5:53 AM 68.0 °F - 66.9 °F 96% 29.96 in 5.0 mi WNW 6.9 mph - N/A   Overcast
6:53 AM 68.0 °F - 66.0 °F 93% 29.98 in 4.0 mi WNW 6.9 mph - N/A   Overcast
7:53 AM 69.1 °F - 66.9 °F 93% 29.99 in 4.0 mi WNW 4.6 mph - N/A   Mostly Cloudy
8:18 AM 71.6 °F - 66.2 °F 83% 30.02 in 6.0 mi WNW 9.2 mph - N/A   Scattered Clouds
8:53 AM 73.4 °F - 68.0 °F 83% 30.03 in 10.0 mi NW 6.9 mph - N/A   Partly Cloudy
9:53 AM 75.9 °F - 66.9 °F 74% 29.99 in 10.0 mi NNW 6.9 mph - N/A   Clear
10:53 AM 78.1 °F - 66.9 °F 68% 30.00 in 10.0 mi NNW 6.9 mph - N/A   Scattered Clouds
11:53 AM 80.1 °F 82.3 °F 66.9 °F 64% 30.01 in 10.0 mi North 5.8 mph - N/A   Partly Cloudy
12:53 PM 82.9 °F 85.0 °F 66.0 °F 56% 30.02 in 10.0 mi Variable 4.6 mph - N/A   Clear
1:53 PM 82.9 °F 84.6 °F 64.9 °F 54% 30.01 in 10.0 mi WNW 6.9 mph - N/A   Scattered Clouds
2:53 PM 84.0 °F 85.8 °F 64.9 °F 53% 30.00 in 10.0 mi NNW 6.9 mph - N/A   Partly Cloudy
3:53 PM 84.0 °F 85.4 °F 64.0 °F 51% 29.98 in 10.0 mi NNW 8.1 mph - N/A   Clear
4:53 PM 84.0 °F 84.4 °F 61.0 °F 46% 29.96 in 10.0 mi NW 9.2 mph - N/A   Clear
5:53 PM 82.9 °F 83.3 °F 61.0 °F 47% 29.95 in 10.0 mi NW 6.9 mph - N/A   Clear
6:53 PM 82.0 °F 82.4 °F 60.1 °F 47% 29.96 in 10.0 mi NW 4.6 mph - N/A   Clear
7:53 PM 77.0 °F - 62.1 °F 60% 30.00 in 10.0 mi Calm Calm - N/A   Clear
8:53 PM 73.0 °F - 62.1 °F 68% 30.01 in 10.0 mi Calm Calm - N/A   Clear
9:53 PM 68.0 °F - 64.0 °F 87% 30.01 in 10.0 mi West 3.5 mph - N/A   Clear
10:53 PM 68.0 °F - 63.0 °F 84% 30.03 in 10.0 mi West 4.6 mph - N/A   Clear
11:53 PM 66.9 °F - 61.0 °F 81% 30.03 in 10.0 mi West 5.8 mph - N/A   Clear